Погода в Топчихе

Россия / Алтайский край     52°49′14″N   83°07′16″E
темп.,
°C
ветер,
м/с
пор.,
м/с
влажн.,
%
обл.,
%
осадки,
мм/ч
давл.,
гПа
погр.,
м
11 августа, чт
чт1101:00+18в337486 0.0 100837
04:00+17всв2281100 0.0 100825
07:00+16всв2284100 0.4 100838
10:00+21всв2367100 0.8 1008383
13:00+27вюв334321 0.8 10081297
16:00+31ю1130100 0.0 10063209
19:00+18вюв258097 2.7 1008328
22:00+17в2284100 4.2 100925
12 августа, пт
пт1201:00+15св2292100 4.2 100922
04:00+14св1196100 0.0 101015
07:00+15с1194100 0.0 101030
10:00+20ссв227146 0.0 1011574
13:00+25ссв335046 0.0 10101287
16:00+27ссв444434 0.0 10091647
19:00+27св454378 0.0 10081345
22:00+22всв236284 0.0 100956
13 августа, сб
сб1301:00+17св238775 2.3 100933
04:00+16в229225 0.4 100925
07:00+17св009029 0.4 100911
10:00+22юз23675 0.0 1010493
13:00+28зсз353234 0.0 10082837
16:00+29з472769 0.0 10072978
19:00+24з91148100 0.0 1008969
22:00+19юз22744 0.1 100917
14 августа, вс
вс1401:00+16юз48791 0.1 1009138
04:00+15зюз366565 0.0 100892
07:00+15ююз5106814 0.0 1007208
10:00+19юз71350100 0.0 1007726
13:00+18з6106694 0.3 1007895
16:00+22з9124798 0.8 10061896
19:00+23зсз793227 0.8 10062434
22:00+16сз612472 0.0 1009591
15 августа, пн
пн1501:00+14з36534 0.0 1010144
04:00+10з38654 0.0 1010135
07:00+10зюз39665 0.0 1010221
10:00+16з69465 0.0 10101486
13:00+17з7939100 0.0 10102434
16:00+16зсз694687 0.0 10111579
19:00+15зсз675495 0.0 10121141
22:00+13зсз5766100 0.0 1014719